1501318800.3,11475,18.25,74182.3,12.29,-18.17,-19.07,0,*43
1501318801.51,11476,18.31,74180.8,12.31,-18.99,-19.95,0,*44
1501318802.74,11477,18.25,74180.8,12.33,-19.03,-20.05,0,*46
1501318803.94,11478,18.31,74182.0,12.35,-18.07,-18.99,0,*44
1501318805.17,11479,18.25,74182.3,12.39,-18.49,-19.41,0,*47
1501318806.41,11480,18.25,74182.8,12.41,-19.75,-20.89,0,*4E
1501318807.62,11481,18.25,74180.0,12.43,-19.91,-20.93,0,*4C
1501318808.85,11482,18.25,74182.0,12.43,-19.75,-20.83,0,*44
1501318810.13,11483,18.25,74182.8,12.49,-20.15,-21.23,0,*48
1501318811.34,11484,18.31,74186.3,12.51,-20.05,-21.17,0,*40
1501318812.57,11485,18.25,74182.5,12.51,-21.93,-22.73,0,*4E
1501318813.85,11486,18.25,74186.3,12.49,-23.95,-25.29,0,*48
1501318815.09,11487,18.25,74180.8,12.45,-21.77,-22.87,0,*48
1501318816.38,11488,18.25,74180.8,12.49,-19.57,-20.49,0,*42
1501318817.67,11489,18.25,74184.0,12.49,-20.49,-21.67,0,*4B
1501318818.93,11490,18.25,74186.3,12.49,-20.59,-21.53,0,*45
1501318820.16,11491,18.31,74184.0,12.51,-20.73,-21.67,0,*42
1501318821.42,11492,18.25,74182.5,12.53,-19.31,-20.29,0,*44
1501318822.67,11493,18.25,74180.5,12.53,-19.95,-20.83,0,*4B
1501318823.93,11494,18.25,74182.3,12.53,-18.73,-19.65,0,*47
1501318825.15,11495,18.31,74184.8,12.57,-18.07,-19.03,0,*41
1501318826.38,11496,18.25,74184.8,12.61,-18.31,-19.07,0,*46
1501318827.59,11497,18.25,74184.8,12.65,-17.87,-18.79,0,*49
1501318828.87,11498,18.25,74186.0,12.67,-17.25,-17.93,0,*47
1501318830.13,11499,18.25,74184.8,12.69,-17.25,-18.01,0,*4C
1501318831.41,11500,18.25,74186.5,12.75,-17.45,-18.35,0,*41
1501318832.63,11501,18.25,74186.5,12.79,-18.17,-19.07,0,*44
1501318833.86,11502,18.25,74184.0,12.81,-18.79,-19.85,0,*42
1501318835.09,11503,18.25,74184.8,12.83,-20.39,-21.39,0,*42
1501318836.37,11504,18.25,74184.3,12.83,-21.97,-23.23,0,*49
1501318837.59,11505,18.25,74184.3,12.81,-22.67,-23.99,0,*47
1501318838.85,11506,18.25,74184.5,12.79,-22.97,-24.25,0,*4C
1501318840.11,11507,18.25,74184.0,12.77,-22.21,-23.23,0,*4F
1501318841.33,11508,18.25,74186.5,12.77,-22.73,-24.05,0,*44
1501318842.58,11509,18.25,74186.5,12.75,-23.23,-24.47,0,*45
1501318843.84,11510,18.25,74186.3,12.73,-23.03,-24.83,0,*41
1501318845.08,11511,18.25,74184.0,12.73,-24.11,-25.49,0,*43
1501318846.37,11512,18.25,74184.3,12.67,-23.95,-25.29,0,*48
1501318847.59,11513,18.25,74186.0,12.65,-23.79,-25.13,0,*40
1501318848.82,11514,18.25,74188.5,12.65,-23.85,-25.19,0,*4E
1501318850.1,11515,18.25,74184.5,12.63,-23.53,-24.87,0,*44
1501318851.31,11516,18.25,74184.3,12.59,-25.09,-26.39,0,*40
1501318852.59,11517,18.25,74184.5,12.57,-23.49,-24.67,0,*44
1501318853.87,11518,18.25,74184.3,12.57,-24.67,-26.17,0,*45
1501318855.1,11519,18.25,74184.5,12.55,-23.33,-24.51,0,*40
1501318856.35,11520,18.25,74184.3,12.53,-23.29,-24.57,0,*41
1501318857.57,11521,18.25,74180.5,12.51,-23.13,-24.11,0,*49
1501318858.83,11522,18.25,74186.3,12.51,-21.67,-22.77,0,*4D
1501318860.05,11523,18.25,74184.8,12.53,-22.63,-23.75,0,*4A
1501318861.32,11524,18.25,74184.8,12.51,-22.47,-23.85,0,*46
1501318862.55,11525,18.25,74190.0,12.51,-23.09,-24.25,0,*41
1501318863.8,11526,18.25,74186.8,12.51,-23.03,-24.11,0,*4F
1501318865.06,11527,18.25,74188.0,12.45,-22.07,-23.19,0,*41
1501318866.28,11528,18.25,74184.5,12.49,-22.63,-23.79,0,*46
1501318867.51,11529,18.25,74188.0,12.49,-22.63,-23.75,0,*4B
1501318868.77,11530,18.25,74188.3,12.49,-21.83,-22.97,0,*43
1501318870.01,11531,18.25,74188.8,12.49,-22.11,-23.13,0,*47
1501318871.27,11532,18.25,74188.3,12.49,-20.89,-21.97,0,*49
1501318872.51,11533,18.25,74190.3,12.51,-19.81,-20.83,0,*47
1501318873.75,11534,18.25,74184.5,12.51,-19.95,-21.03,0,*4C
1501318875.0,11535,18.25,74188.0,12.55,-21.03,-22.21,0,*4E
1501318876.22,11536,18.25,74188.0,12.55,-22.41,-23.53,0,*4C
1501318877.44,11537,18.25,74186.5,12.55,-23.23,-24.35,0,*4F
1501318878.67,11538,18.25,74184.0,12.51,-25.03,-26.23,0,*45
1501318879.91,11539,18.25,74190.8,12.51,-25.71,-26.87,0,*4F
1501318881.14,11540,18.25,74190.5,12.49,-25.09,-26.45,0,*49
1501318882.4,11541,18.25,74190.0,12.45,-25.97,-27.29,0,*48
1501318883.65,11542,18.25,74184.5,12.39,-27.39,-28.79,0,*4C
1501318884.91,11543,18.25,74182.8,12.37,-24.11,-25.35,0,*4F
1501318886.14,11544,18.25,74178.8,12.35,-23.65,-24.93,0,*43
1501318887.4,11545,18.25,74182.3,12.35,-23.03,-24.25,0,*4F
1501318888.63,11546,18.25,74182.8,12.35,-22.57,-23.69,0,*43
1501318889.88,11547,18.25,74182.8,12.33,-24.15,-25.35,0,*4B
1501318891.17,11548,18.25,74184.8,12.33,-25.81,-27.35,0,*4A
1501318892.4,11549,18.25,74182.5,12.31,-24.87,-26.03,0,*4A
1501318893.69,11550,18.25,74186.3,12.29,-24.41,-25.71,0,*47
1501318894.95,11551,18.25,74184.5,12.29,-23.95,-25.19,0,*46
1501318896.16,11552,18.25,74184.3,12.27,-22.83,-24.05,0,*41
1501318897.39,11553,18.25,74182.3,12.27,-23.13,-24.41,0,*48
1501318898.6,11554,18.25,74184.5,12.27,-22.93,-24.05,0,*46
1501318899.81,11555,18.25,74184.0,12.27,-24.35,-25.87,0,*46
1501318901.07,11556,18.25,74182.8,12.23,-28.59,-30.17,0,*4A
1501318902.33,11557,18.25,74180.5,12.17,-28.75,-30.45,0,*45
1501318903.58,11558,18.25,74184.8,12.15,-25.55,-26.71,0,*47
1501318904.8,11559,18.25,74186.8,12.11,-24.47,-25.65,0,*46
1501318906.04,11560,18.25,74186.3,12.11,-23.09,-24.21,0,*40
1501318907.3,11561,18.25,74186.8,12.13,-22.37,-23.49,0,*46
1501318908.53,11562,18.31,74188.3,12.13,-21.77,-22.87,0,*41
1501318909.78,11563,18.25,74190.8,12.13,-22.77,-23.89,0,*4C
1501318911.02,11564,18.25,74186.8,12.13,-24.51,-25.65,0,*4D
1501318912.25,11565,18.25,74184.3,12.13,-25.49,-26.87,0,*4B
1501318913.48,11566,18.25,74186.0,12.13,-25.13,-26.49,0,*45
1501318914.68,11567,18.25,74186.0,12.11,-25.87,-27.13,0,*45
1501318915.91,11568,18.31,74184.5,12.09,-24.57,-25.91,0,*47
1501318917.15,11569,18.25,74182.8,12.07,-24.51,-25.71,0,*40
1501318918.4,11570,18.25,74184.0,12.09,-21.97,-23.13,0,*4B
1501318919.68,11571,18.25,74184.3,12.09,-22.17,-23.29,0,*48
1501318920.88,11572,18.25,74184.0,12.07,-22.93,-23.89,0,*43
1501318922.08,11573,18.25,74180.8,12.11,-22.27,-23.39,0,*41
1501318923.35,11574,18.31,74188.3,12.09,-22.73,-23.69,0,*4B
1501318924.61,11575,18.31,74188.3,12.11,-21.97,-23.03,0,*46
1501318925.81,11576,18.31,74186.0,12.11,-20.39,-21.43,0,*46
1501318927.07,11577,18.31,74184.5,12.15,-20.49,-21.53,0,*45
1501318928.31,11578,18.31,74184.5,12.17,-19.71,-20.59,0,*42
1501318929.54,11579,18.31,74186.5,12.21,-18.99,-19.91,0,*4F
1501318930.75,11580,18.31,74188.5,12.27,-19.17,-19.95,0,*4C
1501318931.98,11581,18.31,74188.3,12.27,-20.25,-21.33,0,*41
1501318933.22,11582,18.25,74186.3,12.31,-20.43,-21.53,0,*43
1501318934.42,11583,18.31,74188.8,12.31,-22.11,-23.39,0,*49
1501318935.64,11584,18.31,74188.8,12.31,-22.41,-23.53,0,*47
1501318936.89,11585,18.31,74188.5,12.31,-22.73,-23.85,0,*4C
1501318938.17,11586,18.31,74190.0,12.33,-22.77,-24.15,0,*47
1501318939.39,11587,18.31,74188.3,12.31,-23.39,-24.67,0,*4A
1501318940.65,11588,18.31,74188.0,12.29,-22.31,-23.09,0,*4A
1501318941.9,11589,18.31,74188.3,12.31,-21.83,-23.03,0,*42
1501318943.13,11590,18.31,74192.0,12.31,-22.87,-24.21,0,*4A
1501318944.37,11591,18.25,74186.8,12.31,-21.53,-22.57,0,*46
1501318945.6,11592,18.31,74188.8,12.29,-22.93,-23.89,0,*41
1501318946.82,11593,18.31,74188.5,12.31,-22.63,-23.69,0,*48
1501318948.02,11594,18.25,74186.8,12.31,-22.87,-24.05,0,*48
1501318949.24,11595,18.31,74190.5,12.31,-22.77,-23.89,0,*45
1501318950.47,11596,18.25,74190.5,12.31,-23.33,-24.57,0,*43
1501318951.73,11597,18.25,74186.8,12.29,-23.43,-24.87,0,*41
1501318952.92,11598,18.31,74190.8,12.31,-25.19,-26.49,0,*4E
1501318954.17,11599,18.31,74192.3,12.23,-23.29,-24.41,0,*43
1501318955.41,11600,18.31,74188.3,12.27,-22.31,-23.43,0,*49
1501318956.62,11601,18.31,74188.8,12.27,-22.53,-23.59,0,*47
1501318957.88,11602,18.31,74194.0,12.27,-22.17,-23.29,0,*43
1501318959.11,11603,18.25,74188.5,12.29,-22.67,-23.79,0,*4E
1501318960.36,11604,18.31,74188.3,12.29,-21.97,-23.13,0,*49
1501318961.59,11605,18.25,74188.3,12.31,-22.27,-23.33,0,*4B
1501318962.82,11606,18.31,74190.8,12.31,-20.99,-21.93,0,*47
1501318964.05,11607,18.31,74190.8,12.31,-20.53,-21.77,0,*4A
1501318965.33,11608,18.31,74190.0,12.33,-22.21,-23.33,0,*42
1501318966.59,11609,18.31,74188.3,12.33,-21.67,-22.87,0,*4C
1501318967.82,11610,18.25,74190.8,12.35,-20.83,-22.07,0,*41
1501318969.03,11611,18.31,74188.5,12.35,-21.77,-22.83,0,*46
1501318970.26,11612,18.31,74190.8,12.35,-22.31,-23.39,0,*44
1501318971.5,11613,18.31,74192.3,12.35,-21.87,-22.83,0,*4B
1501318972.73,11614,18.31,74188.5,12.35,-21.73,-22.73,0,*48
1501318973.93,11615,18.31,74190.8,12.39,-21.09,-22.03,0,*4F
1501318975.17,11616,18.31,74192.3,12.39,-19.41,-20.43,0,*4D
1501318976.39,11617,18.31,74192.3,12.43,-18.49,-19.41,0,*40
1501318977.62,11618,18.25,74190.5,12.43,-20.49,-21.63,0,*4F
1501318978.88,11619,18.31,74194.0,12.49,-21.13,-22.17,0,*4A
1501318980.16,11620,18.31,74190.3,12.49,-22.31,-23.33,0,*44
1501318981.42,11621,18.31,74192.0,12.49,-23.29,-24.31,0,*48
1501318982.68,11622,18.31,74192.3,12.45,-22.53,-23.53,0,*48
1501318983.97,11623,18.25,74190.8,12.45,-22.21,-23.23,0,*4B
1501318985.22,11624,18.25,74188.8,12.45,-21.33,-22.41,0,*49
1501318986.45,11625,18.31,74190.3,12.45,-21.09,-22.27,0,*41
1501318987.68,11626,18.31,74192.0,12.45,-21.63,-22.83,0,*40
1501318988.94,11627,18.25,74190.8,12.45,-21.93,-23.19,0,*4C
1501318990.17,11628,18.25,74188.8,12.45,-21.43,-22.53,0,*41
1501318991.4,11629,18.25,74188.5,12.45,-21.47,-22.57,0,*40
1501318992.66,11630,18.31,74192.5,12.45,-21.73,-22.73,0,*49
1501318993.89,11631,18.31,74190.3,12.49,-22.63,-23.75,0,*41
1501318995.15,11632,18.25,74188.5,12.45,-23.99,-25.23,0,*4F
1501318996.37,11633,18.25,74190.3,12.43,-23.69,-24.77,0,*47
1501318997.6,11634,18.25,74188.0,12.43,-22.53,-23.53,0,*49
1501318998.83,11635,18.25,74192.3,12.43,-22.67,-23.85,0,*44
1501319000.11,11636,18.25,74190.0,12.41,-23.53,-24.83,0,*42
1501319001.32,11637,18.25,74192.8,12.43,-24.51,-25.91,0,*46
1501319002.55,11638,18.25,74188.0,12.39,-25.61,-27.19,0,*44
1501319003.81,11639,18.25,74188.0,12.37,-27.07,-28.43,0,*49
1501319005.09,11640,18.31,74194.5,12.33,-26.55,-28.05,0,*47
1501319006.35,11641,18.25,74188.0,12.29,-25.91,-27.35,0,*4A
1501319007.58,11642,18.25,74188.8,12.29,-25.49,-26.61,0,*4C
1501319008.81,11643,18.25,74188.0,12.23,-23.85,-25.13,0,*47
1501319010.04,11644,18.25,74188.3,12.23,-22.57,-23.69,0,*45
1501319011.26,11645,18.25,74190.3,12.23,-23.49,-24.93,0,*48
1501319012.49,11646,18.25,74188.5,12.21,-25.13,-26.61,0,*4F
1501319013.72,11647,18.25,74186.3,12.21,-23.09,-24.31,0,*44
1501319014.97,11648,18.25,74186.5,12.21,-22.07,-23.19,0,*49
1501319016.2,11649,18.25,74188.8,12.21,-24.05,-25.35,0,*44
1501319017.4,11650,18.25,74192.0,12.19,-24.97,-26.45,0,*48
1501319018.63,11651,18.25,74190.5,12.19,-25.29,-26.49,0,*41
1501319019.87,11652,18.25,74186.0,12.15,-24.31,-25.55,0,*48
1501319021.1,11653,18.25,74188.8,12.15,-22.97,-24.15,0,*46
1501319022.33,11654,18.25,74192.8,12.15,-23.65,-24.97,0,*47
1501319023.57,11655,18.25,74188.3,12.17,-24.35,-25.65,0,*4A
1501319024.84,11656,18.25,74188.5,12.11,-24.71,-25.97,0,*42
1501319026.13,11657,18.25,74188.0,12.13,-24.71,-26.29,0,*47
1501319027.36,11658,18.25,74190.5,12.11,-26.49,-27.83,0,*42
1501319028.56,11659,18.25,74188.8,12.07,-25.23,-26.65,0,*42
1501319029.81,11660,18.25,74190.8,12.07,-24.87,-26.17,0,*42
1501319031.1,11661,18.25,74188.3,12.01,-26.93,-28.09,0,*43
1501319032.36,11662,18.25,74188.8,12.01,-24.51,-25.75,0,*4A
1501319033.63,11663,18.31,74194.0,12.01,-24.21,-25.35,0,*48
1501319034.86,11664,18.25,74192.8,11.99,-23.23,-24.35,0,*49
1501319036.05,11665,18.25,74188.0,11.99,-22.87,-23.89,0,*47
1501319037.25,11666,18.25,74190.3,11.99,-22.87,-23.89,0,*44
1501319038.51,11667,18.25,74190.5,11.99,-21.97,-23.03,0,*45
1501319039.74,11668,18.25,74190.3,12.01,-21.63,-22.87,0,*4E
1501319041.02,11669,18.25,74190.0,12.05,-21.57,-22.77,0,*43
1501319042.27,11670,18.25,74190.8,12.05,-21.13,-22.21,0,*48
1501319043.53,11671,18.25,74190.5,12.07,-21.23,-22.31,0,*49
1501319044.75,11672,18.25,74188.0,12.09,-22.03,-23.09,0,*4F
1501319045.96,11673,18.25,74188.8,12.11,-23.75,-25.19,0,*40
1501319047.17,11674,18.25,74188.0,12.07,-23.89,-25.19,0,*43
1501319048.41,11675,18.25,74188.0,12.09,-22.83,-24.11,0,*4E
1501319049.61,11676,18.31,74192.0,12.07,-23.59,-24.93,0,*4F
1501319050.81,11677,18.25,74188.8,12.07,-25.35,-26.49,0,*47
1501319052.04,11678,18.31,74194.3,12.09,-22.57,-23.59,0,*41
1501319053.27,11679,18.31,74192.0,12.07,-21.97,-23.09,0,*44
1501319054.5,11680,18.31,74190.8,12.07,-21.73,-22.77,0,*40
1501319055.73,11681,18.31,74192.5,12.09,-21.47,-22.63,0,*4D
1501319056.98,11682,18.31,74192.5,12.09,-22.31,-23.43,0,*4F
1501319058.23,11683,18.25,74190.3,12.09,-22.57,-23.69,0,*46
1501319059.46,11684,18.31,74192.8,12.09,-22.27,-23.39,0,*43
1501319060.72,11685,18.31,74190.0,12.13,-21.77,-22.77,0,*44
1501319061.99,11686,18.25,74184.0,12.13,-20.83,-21.97,0,*40
1501319063.24,11687,18.25,74186.0,12.13,-23.03,-24.35,0,*47
1501319064.5,11688,18.25,74182.8,12.13,-24.61,-25.81,0,*45
1501319065.75,11689,18.31,74188.3,12.11,-22.73,-23.85,0,*41
1501319067.01,11690,18.31,74190.3,12.13,-24.61,-25.81,0,*4C
1501319068.26,11691,18.25,74190.8,12.09,-24.41,-25.91,0,*45
1501319069.47,11692,18.25,74184.5,12.07,-23.59,-24.93,0,*45
1501319070.7,11693,18.31,74188.3,12.07,-23.13,-24.21,0,*43
1501319071.95,11694,18.31,74188.3,12.09,-22.83,-23.95,0,*4A
1501319073.19,11695,18.31,74190.0,12.09,-22.73,-23.89,0,*49
1501319074.42,11696,18.31,74188.3,12.09,-21.73,-22.93,0,*43
1501319075.68,11697,18.31,74192.5,12.09,-23.09,-24.21,0,*42
1501319076.89,11698,18.31,74188.8,12.11,-21.93,-22.93,0,*4A
1501319078.15,11699,18.25,74186.8,12.13,-22.67,-23.85,0,*47
1501319079.43,11700,18.31,74190.3,12.13,-22.21,-23.49,0,*44
1501319080.65,11701,18.31,74190.8,12.13,-22.27,-23.39,0,*44
1501319081.93,11702,18.25,74186.3,12.13,-22.21,-23.53,0,*4D
1501319083.18,11703,18.25,74188.8,12.11,-22.73,-23.85,0,*42
1501319084.43,11704,18.31,74188.5,12.13,-22.41,-23.69,0,*44
1501319085.7,11705,18.31,74190.8,12.13,-23.49,-24.67,0,*45
1501319086.95,11706,18.25,74184.0,12.11,-24.21,-25.65,0,*4E
1501319088.19,11707,18.31,74192.0,12.09,-26.87,-28.47,0,*45
1501319089.43,11708,18.31,74188.8,12.07,-24.21,-25.39,0,*4E
1501319090.69,11709,18.31,74186.3,12.07,-24.21,-25.55,0,*45
1501319091.93,11710,18.31,74190.5,12.07,-23.13,-24.25,0,*4D
1501319093.18,11711,18.31,74190.8,12.01,-25.45,-26.65,0,*49
1501319094.45,11712,18.31,74190.0,12.05,-23.03,-24.15,0,*4F
1501319095.71,11713,18.31,74188.0,12.01,-22.67,-23.85,0,*47
1501319096.94,11714,18.31,74184.0,12.01,-22.93,-24.05,0,*44
1501319098.17,11715,18.31,74184.8,12.01,-23.39,-24.51,0,*45
1501319099.43,11716,18.31,74186.3,12.01,-23.99,-25.19,0,*41
1501319100.69,11717,18.31,74184.5,11.99,-24.21,-25.45,0,*4F
1501319101.95,11718,18.25,74182.0,11.99,-24.15,-25.75,0,*44
1501319103.18,11719,18.31,74186.8,11.99,-23.89,-25.03,0,*46
1501319104.45,11720,18.25,74182.3,11.97,-24.51,-25.71,0,*45
1501319105.65,11721,18.31,74186.0,11.93,-23.89,-25.23,0,*45
1501319106.91,11722,18.31,74190.8,11.95,-24.11,-25.39,0,*4D
1501319108.12,11723,18.25,74184.8,11.93,-24.77,-26.07,0,*44
1501319109.37,11724,18.31,74188.8,11.93,-23.99,-25.29,0,*4B
1501319110.6,11725,18.25,74186.0,11.93,-23.19,-24.57,0,*4A
1501319111.8,11726,18.31,74184.8,11.93,-24.61,-25.87,0,*4D
1501319113.03,11727,18.31,74184.3,11.93,-23.99,-25.39,0,*49
1501319114.26,11728,18.31,74186.5,11.89,-23.85,-24.97,0,*45
1501319115.48,11729,18.25,74188.8,11.91,-23.09,-24.31,0,*45
1501319116.76,11730,18.25,74186.8,11.91,-22.21,-23.19,0,*4B
1501319118.0,11731,18.31,74184.5,11.91,-22.07,-23.33,0,*46
1501319119.25,11732,18.25,74180.8,11.91,-21.97,-23.09,0,*46
1501319120.53,11733,18.25,74182.3,11.95,-22.47,-23.65,0,*47
1501319121.79,11734,18.25,74184.5,11.97,-22.97,-24.11,0,*4B
1501319123.04,11735,18.31,74186.8,11.93,-25.71,-27.23,0,*43
1501319124.26,11736,18.25,74184.3,11.91,-25.91,-27.07,0,*4A
1501319125.49,11737,18.25,74182.3,11.91,-21.17,-22.11,0,*43
1501319126.75,11738,18.25,74180.5,11.91,-21.87,-22.97,0,*4B
1501319128.01,11739,18.25,74186.5,11.95,-21.67,-22.63,0,*4B
1501319129.27,11740,18.25,74182.5,11.97,-21.17,-22.31,0,*47
1501319130.5,11741,18.25,74180.8,11.97,-23.43,-24.51,0,*45
1501319131.77,11742,18.25,74182.5,11.97,-24.21,-25.49,0,*4D
1501319133.03,11743,18.25,74182.3,11.95,-24.11,-25.39,0,*4A
1501319134.31,11744,18.25,74182.3,11.95,-23.19,-24.41,0,*4C
1501319135.56,11745,18.31,74186.8,11.93,-22.47,-23.33,0,*43
1501319136.84,11746,18.25,74182.0,11.95,-21.57,-22.77,0,*45
1501319138.11,11747,18.25,74180.0,11.97,-22.93,-24.21,0,*48
1501319139.34,11748,18.25,74184.0,11.95,-23.43,-24.61,0,*4D
1501319140.59,11749,18.25,74184.3,11.97,-23.09,-24.11,0,*47
1501319141.82,11750,18.25,74184.3,11.95,-22.67,-23.89,0,*42
1501319143.02,11751,18.25,74182.5,11.93,-23.43,-24.57,0,*46
1501319144.28,11752,18.25,74184.5,11.95,-22.97,-24.15,0,*4D
1501319145.5,11753,18.31,74186.8,11.93,-22.97,-24.15,0,*4A
1501319146.73,11754,18.25,74182.8,11.95,-23.75,-24.93,0,*48
1501319147.94,11755,18.25,74182.8,11.93,-23.43,-24.61,0,*47
1501319149.14,11756,18.25,74182.0,11.93,-23.59,-24.77,0,*48
1501319150.42,11757,18.25,74184.8,11.91,-23.85,-25.03,0,*48
1501319151.65,11758,18.31,74184.5,11.91,-23.79,-24.93,0,*4C
1501319152.88,11759,18.25,74186.0,11.89,-24.21,-25.39,0,*4F
1501319154.11,11760,18.31,74184.8,11.89,-23.85,-25.09,0,*4F
1501319155.34,11761,18.25,74182.5,11.89,-24.67,-25.87,0,*43
1501319156.6,11762,18.25,74186.0,11.87,-24.41,-25.87,0,*4A
1501319157.84,11763,18.25,74186.0,11.85,-24.47,-25.75,0,*42
1501319159.08,11764,18.25,74184.3,11.85,-24.35,-25.55,0,*42
1501319160.34,11765,18.25,74188.8,11.87,-23.99,-25.09,0,*49
1501319161.58,11766,18.25,74188.0,11.85,-24.57,-25.97,0,*4A
1501319162.83,11767,18.25,74188.5,11.79,-24.47,-25.61,0,*40
1501319164.11,11768,18.25,74186.3,11.79,-23.65,-24.83,0,*45
1501319165.4,11769,18.25,74190.3,11.79,-23.19,-24.21,0,*47
1501319166.62,11770,18.31,74188.3,11.81,-22.87,-24.11,0,*4D
1501319167.85,11771,18.25,74188.3,11.85,-23.33,-24.61,0,*41
1501319169.09,11772,18.25,74188.3,11.81,-23.85,-25.09,0,*44
1501319170.33,11773,18.25,74190.8,11.79,-23.79,-25.09,0,*41
1501319171.56,11774,18.25,74186.3,11.81,-23.79,-24.83,0,*42
1501319172.81,11775,18.31,74194.8,11.79,-22.67,-23.69,0,*49
1501319174.06,11776,18.25,74190.5,11.81,-22.73,-23.95,0,*4B
1501319175.28,11777,18.25,74192.8,11.81,-22.67,-23.95,0,*4F
1501319176.5,11778,18.25,74190.8,11.81,-22.11,-23.33,0,*4D
1501319177.71,11779,18.25,74196.5,11.85,-22.97,-24.31,0,*43
1501319178.94,11780,18.25,74192.5,11.85,-25.09,-26.29,0,*4E
1501319180.17,11781,18.25,74196.5,11.79,-25.19,-26.49,0,*4B
1501319181.4,11782,18.25,74192.0,11.79,-27.13,-28.53,0,*45
1501319182.65,11783,18.25,74184.5,11.73,-27.19,-28.59,0,*4E
1501319183.89,11784,18.25,74180.3,11.69,-24.15,-25.49,0,*41
1501319185.15,11785,18.31,74188.0,11.71,-23.29,-24.47,0,*4E
1501319186.38,11786,18.25,74188.0,11.69,-22.83,-23.99,0,*41
1501319187.67,11787,18.25,74188.0,11.71,-22.17,-23.33,0,*44
1501319188.92,11788,18.25,74190.0,11.73,-25.75,-27.45,0,*4F
1501319190.16,11789,18.25,74188.5,11.73,-26.03,-27.23,0,*4C
1501319191.39,11790,18.31,74184.8,11.69,-25.75,-27.13,0,*4E
1501319192.66,11791,18.31,74188.3,11.67,-26.97,-28.15,0,*47
1501319193.89,11792,18.25,74184.3,11.65,-23.95,-25.19,0,*40
1501319195.12,11793,18.31,74188.0,11.65,-22.97,-24.11,0,*4B
1501319196.37,11794,18.25,74178.5,11.67,-22.63,-23.85,0,*4F
1501319197.65,11795,18.31,74182.8,11.67,-23.03,-24.15,0,*47
1501319198.88,11796,18.31,74182.0,11.69,-23.99,-25.23,0,*4D
1501319200.13,11797,18.25,74184.3,11.67,-24.31,-25.65,0,*45
1501319201.37,11798,18.31,74186.0,11.67,-22.87,-24.15,0,*47
1501319202.6,11799,18.31,74190.0,11.69,-23.29,-24.35,0,*4F
1501319203.86,11800,18.31,74190.5,11.67,-26.33,-27.71,0,*43
1501319205.12,11801,18.31,74188.0,11.65,-26.93,-27.61,0,*4B
1501319206.34,11802,18.31,74186.0,11.63,-24.05,-25.09,0,*4F
1501319207.6,11803,18.31,74190.8,11.63,-22.31,-23.49,0,*4D
1501319208.83,11804,18.31,74190.0,11.65,-21.73,-22.77,0,*45
1501319210.03,11805,18.25,74182.5,11.65,-20.25,-21.13,0,*47
1501319211.26,11806,18.31,74186.5,11.69,-20.99,-22.07,0,*49
1501319212.48,11807,18.31,74184.8,11.73,-19.95,-20.93,0,*4A
1501319213.73,11808,18.31,74190.0,11.75,-20.53,-21.63,0,*4D
1501319214.99,11809,18.25,74188.0,11.79,-19.99,-20.99,0,*48
1501319216.22,11810,18.25,74186.8,11.81,-20.69,-21.57,0,*41
1501319217.47,11811,18.31,74186.3,11.87,-21.23,-22.41,0,*4D
1501319218.7,11812,18.25,74182.0,11.87,-22.03,-23.13,0,*49
1501319219.93,11813,18.31,74182.5,11.89,-21.77,-22.77,0,*45
1501319221.15,11814,18.31,74184.8,11.89,-21.33,-22.27,0,*47
1501319222.35,11815,18.31,74184.8,11.89,-21.09,-22.11,0,*4A
1501319223.61,11816,18.31,74184.0,11.95,-21.87,-22.93,0,*48
1501319224.87,11817,18.31,74186.3,11.95,-20.99,-22.07,0,*4A
1501319226.1,11818,18.31,74190.8,11.97,-20.93,-22.03,0,*49
1501319227.36,11819,18.25,74186.0,11.97,-19.85,-20.89,0,*45
1501319228.59,11820,18.25,74186.5,12.01,-18.79,-19.71,0,*4C
1501319229.85,11821,18.31,74184.0,12.05,-18.31,-19.13,0,*41
1501319231.06,11822,18.31,74186.8,12.11,-18.25,-19.17,0,*46
1501319232.32,11823,18.31,74186.8,12.13,-18.69,-19.57,0,*49
1501319233.54,11824,18.31,74190.0,12.17,-18.17,-19.03,0,*42
1501319234.82,11825,18.31,74190.8,12.21,-18.89,-19.65,0,*41
1501319236.08,11826,18.31,74190.5,12.27,-22.17,-23.49,0,*4D
1501319237.28,11827,18.25,74188.5,12.23,-25.23,-26.45,0,*41
1501319238.5,11828,18.25,74190.3,12.19,-24.31,-25.49,0,*4A
1501319239.73,11829,18.25,74188.3,12.19,-22.57,-23.69,0,*49
1501319240.97,11830,18.25,74188.0,12.19,-22.77,-23.75,0,*4E
1501319242.23,11831,18.25,74190.8,12.17,-22.11,-23.23,0,*42
1501319243.43,11832,18.25,74186.8,12.19,-22.27,-23.39,0,*41
1501319244.63,11833,18.25,74184.5,12.19,-21.43,-22.41,0,*4F
1501319245.85,11834,18.25,74186.0,12.21,-21.43,-22.53,0,*40
1501319247.08,11835,18.25,74186.3,12.21,-21.43,-22.57,0,*45
1501319248.34,11836,18.25,74180.8,12.21,-21.67,-22.87,0,*4D
1501319249.56,11837,18.25,74182.5,12.23,-21.57,-22.57,0,*40
1501319250.82,11838,18.25,74182.3,12.23,-22.47,-23.53,0,*48
1501319252.02,11839,18.25,74180.0,12.23,-21.63,-22.87,0,*44
1501319253.23,11840,18.25,74182.0,12.23,-20.35,-21.43,0,*43
1501319254.49,11841,18.25,74180.3,12.23,-20.83,-21.87,0,*47
1501319255.7,11842,18.25,74186.0,12.27,-23.09,-24.05,0,*4E
1501319256.94,11843,18.25,74180.3,12.27,-22.17,-23.13,0,*41
1501319258.2,11844,18.25,74184.8,12.27,-21.03,-22.17,0,*45
1501319259.48,11845,18.25,74180.8,12.29,-19.85,-20.79,0,*45
1501319260.69,11846,18.25,74184.3,12.31,-19.75,-20.59,0,*42
1501319261.96,11847,18.25,74182.8,12.35,-19.61,-20.49,0,*43
1501319263.21,11848,18.25,74180.3,12.35,-19.31,-20.15,0,*40
1501319264.45,11849,18.25,74182.5,12.39,-18.35,-19.17,0,*40
1501319265.71,11850,18.25,74180.5,12.41,-19.91,-20.99,0,*44
1501319266.93,11851,18.25,74184.5,12.43,-20.35,-21.43,0,*45
1501319268.13,11852,18.25,74184.5,12.43,-20.25,-21.17,0,*46
1501319269.39,11853,18.25,74186.5,12.49,-18.93,-19.71,0,*40
1501319270.61,11854,18.25,74180.8,12.53,-18.11,-18.99,0,*41
1501319271.84,11855,18.25,74186.3,12.53,-18.99,-19.95,0,*4D
1501319273.09,11856,18.25,74190.8,12.57,-20.09,-21.33,0,*4F
1501319274.32,11857,18.25,74188.3,12.61,-18.89,-19.75,0,*41
1501319275.53,11858,18.25,74186.8,12.61,-19.51,-20.69,0,*4D
1501319276.76,11859,18.25,74190.3,12.61,-19.75,-20.83,0,*4E
1501319277.98,11860,18.25,74190.5,12.65,-19.03,-20.09,0,*43
1501319279.22,11861,18.25,74190.0,12.65,-19.61,-20.69,0,*40
1501319280.43,11862,18.25,74194.5,12.69,-19.71,-20.73,0,*45
1501319281.72,11863,18.25,74188.5,12.67,-22.17,-23.49,0,*48
1501319282.98,11864,18.25,74192.5,12.67,-20.63,-21.83,0,*4A
1501319284.23,11865,18.25,74188.0,12.69,-21.27,-22.21,0,*4F
1501319285.47,11866,18.25,74190.0,12.65,-19.75,-20.83,0,*46
1501319286.67,11867,18.25,74188.0,12.69,-19.99,-21.13,0,*41
1501319287.88,11868,18.25,74186.5,12.73,-22.41,-23.59,0,*44
1501319289.11,11869,18.25,74190.5,12.69,-21.67,-22.87,0,*4B
1501319290.34,11870,18.25,74190.5,12.67,-19.91,-21.09,0,*4A
1501319291.55,11871,18.25,74184.3,12.73,-17.83,-18.73,0,*44
1501319292.78,11872,18.25,74182.8,12.75,-16.93,-17.83,0,*41
1501319294.0,11873,18.25,74184.5,12.79,-17.73,-18.69,0,*48
1501319295.23,11874,18.25,74190.8,12.83,-17.87,-18.65,0,*4D